sat.trackr.live / text

‹ back to catalog

STARLINK-33693

NORAD 63409 · 2025-065L

PAYLOAD ACTIVE UNKNOWN

§ Identity

Operator
Country
US
Launch date
2025-03-31
Launch site
AFETR
Launch vehicle
Mass (kg)
RCS (m²)

Purposes: comms

External: N2YO · Heavens-Above · Gunter

§ Orbital elements

Epoch: 2026-05-24T22:58:35.746752Z

Period
94.27 min
Inclination
43.0026°
Eccentricity
0.0001030
Mean motion
15.27582618 rev/d
Perigee alt
482.3 km
Apogee alt
483.7 km
Semi-major
6,861.2 km
B*
7.3322e-4
RAAN
36.3893°
Arg perigee
227.4418°
Mean anomaly
132.6347°
Rev number
6,450

§ Raw data

STARLINK-336931 63409U 25065L   26144.95735818  .00019971  00000+0  73322-3 0  99992 63409  43.0026  36.3893 0001030 227.4418 132.6347 15.27582618 64509

JSON: /api/v1/satellites/63409 · /tle

For live sub-satellite position, see the globe view (requires WebGL).

§ Visibility from observer

Set your observer location to see the next 7 days of passes ≥ 10°. The values pass through the URL so the page stays shareable.

No JS? Fill the form by hand. The geolocation button needs JavaScript.